KINEIS-4A

Last updated on Thu Sep 24 2026 00:03:12 GMT+0000 (Coordinated Universal Time)

1 63303U 25056D 26266.57246618 .00000985 00000+0 16346-3 0 9998 2 63303 97.9218 28.0321 0001375 23.2340 336.8929 14.72302895 81605
UTC large
Height (km)
Speed (km/s)
/
Latitude / Longitude
Inclination (degrees)
Orbital Period (minutes)
Azimuth
Elevation
Range (km)
Doppler Factor

Next 0 passes for location: London (51.5072 / 0.1276)

No passes found over London.
KINEIS-4A